Location: *
(28.3744°N, 81.5492°W)
Time: 03:46:01
(UTC+00:00)

USA 305 - Pass Details

Date: 15 June 2025
Orbit: 491 x 494 km, 54.4° (Epoch: 11 March)

Event Time Altitude Azimuth Distance (km) Brightness Sun altitude
Rises 00:53:08 0° 212° (SSW) 2,407 6.1 -6.3°
Reaches altitude 10° 00:55:11 10° 209° (SSW) 1,612 5.2 -6.7°
Maximum altitude 00:58:55 65° 127° (SE) 545 2.5 -7.4°
Drops below altitude 10° 01:02:50 10° 45° (NE) 1,682 5.2 -8.1°
Sets 01:05:00 0° 43° (NE) 2,523 6.1 -8.5°
